Regional Weather Roundup
Issued by NWS

Home | Current Version | Previous Version | Text Only | Print | Product List | Glossary Off
Versions: 1 2 3 4 5 6 7 8 9 10 11 12 13 14 15 16 17 18 19 20 21 22 23 24 25 26 27 28 29 30 31 32 33 34 35 36 37 38 39 40 41 42 43 44 45 46 47 48 49 50

000
ASUS43 KFSD 301410
RWRSD

WEATHER ROUNDUP FOR SOUTH DAKOTA
NATIONAL WEATHER SERVICE SIOUX FALLS SD
900 AM CDT SUN AUG 30 2015

NOTE: "FAIR" INDICATES FEW OR NO CLOUDS BELOW 12,000 FEET WITH NO
SIGNIFICANT WEATHER AND/OR OBSTRUCTIONS TO VISIBILITY.


SDZ001>005-009-010-012>017-301500-
NORTHWEST AND NORTH CENTRAL SOUTH DAKOTA

CITY           SKY/WX    TMP DP  RH WIND       PRES   REMARKS
BUFFALO          N/A     70  50  49 S9        29.71R
FAITH            N/A     69  51  52 S15       29.77F
MOBRIDGE       PTSUNNY   70  62  76 SE14      29.77F
$$

SDZ012>016-024>037-041>051-057-063-072>074-301500-
SOUTHWEST AND SOUTH CENTRAL SOUTH DAKOTA

CITY           SKY/WX    TMP DP  RH WIND       PRES   REMARKS
RAPID CTY ARPT SUNNY     67  51  56 SE6       29.84S
PIERRE         MOSUNNY   72  56  57 SE10      29.82S
CUSTER         MOSUNNY   69  48  47 W6        30.03S
ELLSWORTH AFB  SUNNY     71  48  43 S9        29.82F
PHILIP         SUNNY     73  51  46 S6        29.82S
PINE RIDGE     SUNNY     72  44  36 S15G26    29.91F
WINNER         FAIR      71  54  54 S20       29.89S
$$

SDZ004>011-016>023-039-040-301500-
NORTHEAST SOUTH DAKOTA

CITY           SKY/WX    TMP DP  RH WIND       PRES   REMARKS
ABERDEEN       MOSUNNY   66  63  90 S13       29.85S
WATERTOWN      SUNNY     64  62  93 S15       29.92F
BROOKINGS      CLOUDY    63  59  88 S13       29.99S
SISSETON         N/A     67  63  87 S7        29.86S
$$

SDZ017-020-022-023-036>040-048>070-301500-
SOUTHEAST SOUTH DAKOTA

CITY           SKY/WX    TMP DP  RH WIND       PRES   REMARKS
SIOUX FALLS    CLOUDY    62  61  96 S12       29.99F FOG
HURON          PTSUNNY   64  62  93 S16       29.89S
CHAMBERLAIN    MOSUNNY   68  61  77 CALM      29.89S
MITCHELL       MOSUNNY   65  64  97 S16       29.93F
YANKTON        CLOUDY    64  63  94 SE9       29.98S
$$

ABBREVIATIONS USED IN REMARKS
   TC - TEMPERATURE IN CELSIUS
  WCI - WIND CHILL INDEX
   HX - HEAT INDEX
  VSB - VISIBILITY




USA.gov is the U.S. government's official web portal to all federal, state and local government web resources and services.